Home > Weather > Molde > Past weeks

Flag for Norway Past Weather in Molde, Norway — Yesterday and Last 2 Weeks

Now
54 °F

Overcast.


Feels Like: 51 °F
Forecast: 51 / 58 °F
Wind: 9 mph from Northeast

Location: Aro

Current Time: Jul 1, 2016 at 4:47:14 AM

Latest Report: Jul 1, 2016 at 3:50 AM


Visibility: N/A

Pressure: 29.62 "Hg

Humidity: 67%

Dew Point: 43 °F

Location of MoldeLocation

Past Weather in Molde — Graph

°F

Molde Temperature Yesterday

Maximum temperature yesterday: 72 °F (at 3:50 PM)
Minimum temperature yesterday: 54 °F (at 1:50 AM)
Average temperature yesterday: 61 °F

High & Low Weather Summary for the Past Weeks

 TemperatureHumidityPressure
High72 °F (Jun 30, 3:50 PM)100% (Jun 26, 6:50 PM)30.09 "Hg (Jun 26, 6:50 PM)
Low43 °F (Jun 20, 1:50 AM)40% (Jun 20, 6:20 PM)29.39 "Hg (Jun 30, 3:20 PM)
Average57 °F76%29.83 "Hg
* Reported Jun 16 3:20 AM — Jul 1 3:20 AM, Molde, Weather by CustomWeather, © 2016

Note: Actual official high and low records may vary slightly from our data, if they occured in-between our weather recording intervals... More about our weather records

Advertising

Molde Weather History for the Previous 24 Hours

Scroll right to see more
 ConditionsComfort  
Time TempWeatherWind HumidityBarometerVisibility
3:20 AM
Fri, Jul 1
57 °FPassing clouds.5 mph59%29.62 "HgN/A
2:50 AM57 °FRefreshingly cool.8 mph55%29.59 "HgN/A
2:20 AM55 °FCool.7 mph63%29.62 "HgN/A
1:50 AM55 °FPassing clouds.9 mph63%29.59 "HgN/A
1:20 AM57 °FPassing clouds.8 mph59%29.59 "HgN/A
12:50 AM57 °FClear.8 mph59%29.59 "HgN/A
12:20 AM57 °FPassing clouds.9 mph59%29.59 "HgN/A
11:50 PM
Thu, Jun 30
57 °FPassing clouds.10 mph63%29.59 "HgN/A
11:20 PM59 °FScattered clouds.10 mph59%29.59 "HgN/A
10:50 PM59 °FScattered clouds.13 mph59%29.56 "HgN/A
10:20 PM59 °FPartly sunny.15 mph59%29.56 "HgN/A
9:50 PM61 °FPartly sunny.20 mph55%29.56 "HgN/A
9:20 PM63 °FPartly sunny.17 mph52%29.53 "HgN/A
8:50 PM63 °FPartly sunny.9 mph59%29.50 "HgN/A
8:20 PM63 °FScattered showers. Broken clouds.6 mph59%29.50 "HgN/A
7:50 PM63 °FBroken clouds.13 mph64%29.47 "HgN/A
7:20 PM66 °FScattered showers. Scattered clouds.7 mph56%29.45 "HgN/A
6:50 PM64 °FScattered clouds.10 mph60%29.45 "HgN/A
6:20 PM68 °FScattered clouds.12 mph53%29.45 "HgN/A
5:50 PM66 °FScattered clouds.13 mph60%29.42 "HgN/A
5:20 PM61 °FSprinkles. Broken clouds.20 mph72%29.42 "HgN/A
4:50 PM68 °FSprinkles. Partly sunny.9 mph56%29.39 "HgN/A
4:20 PM72 °FScattered clouds.12 mph47%29.39 "HgN/A
3:50 PM72 °FScattered clouds.10 mph53%29.39 "HgN/A
3:20 PM70 °FBroken clouds.9 mph46%29.39 "HgN/A
2:50 PM68 °FBroken clouds.10 mph56%29.42 "HgN/A
2:20 PM70 °FBroken clouds.6 mph50%29.42 "HgN/A
1:50 PM70 °FBroken clouds.9 mph50%29.42 "HgN/A
1:20 PM68 °FBroken clouds.9 mph49%29.42 "HgN/A
12:50 PM68 °FBroken clouds.8 mph53%29.45 "HgN/A
12:20 PM70 °FBroken clouds.8 mph50%29.45 "HgN/A
11:50 AM68 °FBroken clouds.12 mph56%29.45 "HgN/A
11:20 AM64 °FBroken clouds.6 mph64%29.45 "HgN/A
10:50 AM64 °FPartly sunny.10 mph56%29.47 "HgN/A
10:20 AM61 °FPassing clouds.9 mph68%29.47 "HgN/A
9:50 AM61 °FSunny.6 mph68%29.47 "Hg10 mi
9:20 AM59 °FSunny.7 mph72%29.50 "Hg10 mi
8:50 AM57 °FSunny.5 mph82%29.50 "Hg10 mi
8:20 AM57 °FSunny.7 mph82%29.50 "Hg10 mi
7:50 AM57 °FSunny.6 mph82%29.53 "Hg10 mi
7:20 AM57 °FSunny.5 mph82%29.53 "Hg10 mi
6:50 AM55 °FSunny.5 mph88%29.53 "Hg10 mi
6:20 AM55 °FSunny.8 mph82%29.56 "Hg10 mi
5:50 AM55 °FClear.6 mph88%29.56 "HgN/A
5:20 AM55 °FClear.5 mph82%29.56 "HgN/A
4:50 AM54 °FClear.6 mph88%29.56 "HgN/A
4:20 AM54 °FClear.7 mph88%29.56 "HgN/A
Weather by CustomWeather, © 2016

See weather overviewHow to use our weather pages